sat.trackr.live / text

‹ back to catalog

STARLINK-33962

NORAD 63950 · 2025-098AA

PAYLOAD ACTIVE UNKNOWN

§ Identity

Operator
Country
US
Launch date
2025-05-13
Launch site
AFWTR
Launch vehicle
Mass (kg)
RCS (m²)

Purposes: comms

External: N2YO · Heavens-Above · Gunter

§ Orbital elements

Epoch: 2026-09-20T22:18:31.423104Z

Period
94.14 min
Inclination
69.9961°
Eccentricity
0.0001476
Mean motion
15.29599603 rev/d
Perigee alt
476.0 km
Apogee alt
478.0 km
Semi-major
6,855.1 km
B*
4.6641e-4
RAAN
139.9462°
Arg perigee
253.5648°
Mean anomaly
106.5365°
Rev number
7,584

§ Raw data

STARLINK-339621 63950U 25098AA  26263.92953036  .00013310  00000+0  46641-3 0  99942 63950  69.9961 139.9462 0001476 253.5648 106.5365 15.29599603 75849

JSON: /api/v1/satellites/63950 · /tle

For live sub-satellite position, see the globe view (requires WebGL).

§ Visibility from observer

Set your observer location to see the next 7 days of passes ≥ 10°. The values pass through the URL so the page stays shareable.

No JS? Fill the form by hand. The geolocation button needs JavaScript.